Kake, AK

3:41 PM AKDT on September 26, 2016 (GMT -0800)
Kake

Weather History for PAFE - December, 2012

Change the Weather History Date:

Saturday, December 29, 2012

  Actual Average Record
Temperature  
Mean Temperature 37 °F -  
Max Temperature 39 °F 33 °F 46 °F (2005)
Min Temperature 35 °F 27 °F 3 °F (1996)
Degree Days  
Heating Degree Days 28    
Moisture  
Dew Point 33 °F    
Average Humidity 87    
Maximum Humidity 93    
Minimum Humidity 81    
Precipitation  
Precipitation 0.00 in - - ()
Sea Level Pressure  
Sea Level Pressure 30.13 in    
Wind  
Wind Speed 7 mph (ESE)    
Max Wind Speed 12 mph    
Max Gust Speed 21 mph    
Visibility 10 miles    
Events      
Averages and records for this station are not official NWS values.
T = Trace of Precipitation, MM = Missing Value Source: NWS Daily Summary

Daily Weather History Graph

Daily Weather History Graph

Search for Another Location

Airport or City:

Trip Planner

Search our weather history database for the weather conditions in past years. The results will help you decide how hot, cold, wet, or windy it might be!

Date:

Astronomy

Dec. 29, 2012 Rise Set
Actual Time 8:33 AM AKST 3:22 PM AKST
Civil Twilight 7:44 AM AKST 4:11 PM AKST
Nautical Twilight 6:54 AM AKST 5:02 PM AKST
Astronomical Twilight 6:07 AM AKST 5:48 PM AKST
Moon 5:27 PM AKST (12/29) 8:49 AM AKST (12/29)
Length of Visible Light 8h 26m
Length of Day
6h 48m
Full, 98% of the Moon is Illuminated
Dec 29
Full
Jan 4
Last Quarter
Jan 11
New
Jan 18
First Quarter
Jan 26
Full

Hourly Weather History & Observations

Time (AKST) Temp. Windchill Dew Point Humidity Pressure Visibility Wind Dir Wind Speed Gust Speed Precip Events Conditions
12:16 AM 35.6 °F 30.7 °F 33.8 °F 93% 30.11 in 10.0 mi East 5.8 mph - N/A   Overcast
12:36 AM 35.6 °F 30.7 °F 33.8 °F 93% 30.12 in 10.0 mi ESE 5.8 mph - N/A   Overcast
12:56 AM 35.6 °F 29.9 °F 33.8 °F 93% 30.12 in 10.0 mi East 6.9 mph - N/A   Overcast
1:16 AM 37.4 °F 32.1 °F 33.8 °F 87% 30.13 in 10.0 mi East 6.9 mph - N/A   Overcast
1:36 AM 37.4 °F 32.1 °F 33.8 °F 87% 30.14 in 10.0 mi ESE 6.9 mph - N/A   Overcast
1:56 AM 35.6 °F 29.9 °F 33.8 °F 93% 30.14 in 10.0 mi ESE 6.9 mph - N/A   Mostly Cloudy
2:16 AM 35.6 °F 30.7 °F 33.8 °F 93% 30.14 in 10.0 mi East 5.8 mph - N/A   Mostly Cloudy
2:36 AM 35.6 °F 30.7 °F 32.0 °F 87% 30.15 in 10.0 mi East 5.8 mph - N/A   Mostly Cloudy
2:56 AM 35.6 °F 29.9 °F 33.8 °F 93% 30.15 in 10.0 mi East 6.9 mph - N/A   Mostly Cloudy
3:16 AM 35.6 °F 29.9 °F 32.0 °F 87% 30.15 in 10.0 mi East 6.9 mph - N/A   Partly Cloudy
3:36 AM 35.6 °F 31.7 °F 32.0 °F 87% 30.15 in 10.0 mi East 4.6 mph - N/A   Scattered Clouds
3:56 AM 35.6 °F 30.7 °F 32.0 °F 87% 30.16 in 10.0 mi SE 5.8 mph - N/A   Scattered Clouds
4:16 AM 35.6 °F 29.2 °F 33.8 °F 93% 30.16 in 10.0 mi East 8.1 mph - N/A   Overcast
4:36 AM 35.6 °F 29.9 °F 32.0 °F 87% 30.16 in 10.0 mi East 6.9 mph - N/A   Overcast
4:56 AM 35.6 °F 29.9 °F 32.0 °F 87% 30.17 in 10.0 mi ESE 6.9 mph - N/A   Overcast
5:16 AM 35.6 °F 29.9 °F 32.0 °F 87% 30.17 in 10.0 mi ESE 6.9 mph - N/A   Overcast
5:36 AM 37.4 °F 31.4 °F 32.0 °F 81% 30.17 in 10.0 mi East 8.1 mph - N/A   Overcast
5:56 AM 35.6 °F 30.7 °F 32.0 °F 87% 30.17 in 10.0 mi East 5.8 mph - N/A   Overcast
6:16 AM 37.4 °F 32.8 °F 32.0 °F 81% 30.17 in 10.0 mi ESE 5.8 mph - N/A   Overcast
6:36 AM 35.6 °F 29.2 °F 32.0 °F 87% 30.16 in 10.0 mi East 8.1 mph - N/A   Overcast
6:56 AM 35.6 °F 29.9 °F 32.0 °F 87% 30.16 in 10.0 mi ESE 6.9 mph - N/A   Overcast
7:16 AM 35.6 °F 29.9 °F 32.0 °F 87% 30.16 in 10.0 mi ESE 6.9 mph - N/A   Overcast
7:36 AM 35.6 °F 30.7 °F 32.0 °F 87% 30.16 in 10.0 mi ESE 5.8 mph - N/A   Overcast
7:56 AM 37.4 °F 32.1 °F 32.0 °F 81% 30.16 in 10.0 mi ESE 6.9 mph - N/A   Overcast
8:16 AM 37.4 °F 32.1 °F 32.0 °F 81% 30.17 in 10.0 mi ESE 6.9 mph - N/A   Overcast
8:36 AM 37.4 °F 32.1 °F 32.0 °F 81% 30.17 in 10.0 mi ESE 6.9 mph - N/A   Overcast
9:16 AM 37.4 °F 32.1 °F 32.0 °F 81% 30.16 in 10.0 mi ESE 6.9 mph - N/A   Overcast
9:36 AM 37.4 °F 32.8 °F 32.0 °F 81% 30.17 in 10.0 mi ESE 5.8 mph - N/A   Overcast
9:56 AM 37.4 °F 32.1 °F 32.0 °F 81% 30.17 in 10.0 mi ESE 6.9 mph - N/A   Overcast
10:16 AM 37.4 °F 32.1 °F 32.0 °F 81% 30.17 in 10.0 mi ESE 6.9 mph - N/A   Overcast
10:36 AM 37.4 °F 32.1 °F 33.8 °F 87% 30.17 in 10.0 mi ESE 6.9 mph - N/A   Overcast
10:56 AM 37.4 °F 32.1 °F 33.8 °F 87% 30.17 in 10.0 mi ESE 6.9 mph - N/A   Overcast
11:16 AM 37.4 °F 32.1 °F 33.8 °F 87% 30.16 in 10.0 mi ESE 6.9 mph - N/A   Overcast
11:36 AM 37.4 °F 32.1 °F 33.8 °F 87% 30.16 in 10.0 mi ESE 6.9 mph - N/A   Overcast
11:56 AM 37.4 °F 32.1 °F 33.8 °F 87% 30.17 in 10.0 mi ESE 6.9 mph - N/A   Overcast
12:16 PM 37.4 °F 32.1 °F 33.8 °F 87% 30.16 in 10.0 mi ESE 6.9 mph - N/A   Overcast
12:36 PM 37.4 °F 30.3 °F 33.8 °F 87% 30.16 in 10.0 mi East 10.4 mph - N/A   Overcast
12:56 PM 37.4 °F 32.8 °F 33.8 °F 87% 30.17 in 10.0 mi ESE 5.8 mph - N/A   Overcast
1:16 PM 37.4 °F 31.4 °F 33.8 °F 87% 30.17 in 10.0 mi ESE 8.1 mph - N/A   Overcast
1:36 PM 37.4 °F 32.1 °F 33.8 °F 87% 30.16 in 8.0 mi East 6.9 mph - N/A   Overcast
1:56 PM 37.4 °F 32.1 °F 33.8 °F 87% 30.16 in 10.0 mi ESE 6.9 mph - N/A   Overcast
2:16 PM 37.4 °F 31.4 °F 33.8 °F 87% 30.15 in 10.0 mi East 8.1 mph - N/A   Overcast
2:36 PM 37.4 °F 30.8 °F 33.8 °F 87% 30.14 in 10.0 mi East 9.2 mph - N/A   Overcast
2:56 PM 37.4 °F 31.4 °F 33.8 °F 87% 30.14 in 10.0 mi East 8.1 mph - N/A   Overcast
3:16 PM 37.4 °F 32.1 °F 33.8 °F 87% 30.14 in 10.0 mi East 6.9 mph - N/A   Overcast
3:36 PM 37.4 °F 31.4 °F 33.8 °F 87% 30.14 in 6.0 mi ESE 8.1 mph 16.1 mph N/A   Overcast
3:56 PM 37.4 °F 30.3 °F 33.8 °F 87% 30.13 in 10.0 mi ESE 10.4 mph - N/A   Overcast
4:16 PM 37.4 °F 30.8 °F 33.8 °F 87% 30.13 in 10.0 mi ESE 9.2 mph - N/A   Overcast
4:36 PM 37.4 °F 31.4 °F 33.8 °F 87% 30.12 in 10.0 mi ESE 8.1 mph - N/A   Overcast
4:56 PM 37.4 °F 30.8 °F 33.8 °F 87% 30.11 in 10.0 mi East 9.2 mph - N/A   Overcast
5:16 PM 37.4 °F 31.4 °F 33.8 °F 87% 30.11 in 10.0 mi ESE 8.1 mph - N/A   Overcast
5:36 PM 37.4 °F 30.8 °F 33.8 °F 87% 30.11 in 10.0 mi ESE 9.2 mph - N/A   Overcast
5:56 PM 37.4 °F 31.4 °F 33.8 °F 87% 30.11 in 10.0 mi ESE 8.1 mph - N/A   Overcast
6:16 PM 37.4 °F 30.8 °F 33.8 °F 87% 30.10 in 10.0 mi ESE 9.2 mph - N/A   Overcast
6:36 PM 37.4 °F 31.4 °F 33.8 °F 87% 30.10 in 10.0 mi East 8.1 mph - N/A   Overcast
6:56 PM 37.4 °F 30.3 °F 33.8 °F 87% 30.10 in 10.0 mi ESE 10.4 mph - N/A   Overcast
7:16 PM 37.4 °F 31.4 °F 33.8 °F 87% 30.08 in 10.0 mi East 8.1 mph - N/A   Overcast
7:36 PM 37.4 °F 29.8 °F 33.8 °F 87% 30.08 in 10.0 mi East 11.5 mph - N/A   Overcast
7:56 PM 37.4 °F 30.8 °F 33.8 °F 87% 30.07 in 10.0 mi ESE 9.2 mph - N/A   Overcast
8:16 PM 37.4 °F 30.8 °F 33.8 °F 87% 30.07 in 10.0 mi East 9.2 mph - N/A   Overcast
8:36 PM 37.4 °F 30.8 °F 33.8 °F 87% 30.07 in 10.0 mi East 9.2 mph - N/A   Overcast
8:56 PM 37.4 °F 30.8 °F 33.8 °F 87% 30.06 in 10.0 mi ESE 9.2 mph - N/A   Overcast
9:16 PM 37.4 °F 32.1 °F 33.8 °F 87% 30.06 in 10.0 mi ESE 6.9 mph - N/A   Overcast
9:36 PM 37.4 °F 31.4 °F 33.8 °F 87% 30.06 in 10.0 mi East 8.1 mph - N/A   Overcast
9:56 PM 37.4 °F 31.4 °F 33.8 °F 87% 30.06 in 10.0 mi ESE 8.1 mph - N/A   Overcast
10:16 PM 37.4 °F 30.8 °F 33.8 °F 87% 30.05 in 10.0 mi ESE 9.2 mph - N/A   Overcast
10:36 PM 37.4 °F 30.3 °F 33.8 °F 87% 30.04 in 10.0 mi ESE 10.4 mph 20.7 mph N/A   Overcast
10:56 PM 37.4 °F 29.8 °F 33.8 °F 87% 30.03 in 10.0 mi ESE 11.5 mph - N/A   Overcast
11:16 PM 39.2 °F 32.0 °F 33.8 °F 81% 30.04 in 10.0 mi ESE 11.5 mph - N/A   Overcast
11:36 PM 39.2 °F 33.6 °F 33.8 °F 81% 30.03 in 10.0 mi ESE 8.1 mph 17.3 mph N/A   Overcast
11:56 PM 39.2 °F 32.5 °F 33.8 °F 81% 30.02 in 10.0 mi ESE 10.4 mph 16.1 mph N/A   Overcast